World > North America > United States > Illinois

Marion, Illinois Regional Weather

Lat: 37.73N, Lon: 88.94W
Wx Zone: ILZ085
Warning FLW WEATHER ALERT - SPECIAL WEATHER STATEMENT (More Info. Click Here) Warning
Feedback

Marion, IL Regional Weather

Expires:201908201700;;937059
ASUS43 KLOT 201609
RWRIL 

ILLINOIS REGIONAL WEATHER ROUNDUP
NATIONAL WEATHER SERVICE CHICAGO/ROMEOVILLE IL
1100 AM CDT TUE AUG 20 2019

NOTE: "FAIR" INDICATES FEW OR NO CLOUDS BELOW 12,000 FEET WITH NO
SIGNIFICANT WEATHER AND/OR OBSTRUCTIONS TO VISIBILITY.

* THESE STATIONS ARE NOT UNDER NWS QUALITY CONTROL. THEY ALSO MAY NOT
  REPORT WEATHER SUCH AS PRECIPITATION OR FOG.


ILZ064>066-069>071-074>076-080>082-084>086-088>090-092>094-201700-
SOUTH-CENTRAL ILLINOIS
  
CITY           SKY/WX    TMP DP  RH WIND       PRES   REMARKS
CARBONDALE     FAIR      90  77  65 SW7       30.05S HX 103           
CAIRO*         FAIR      89  78  71 S7        30.07S HX 103           
EFFINGHAM*     FAIR      82  74  76 SE5       30.06S HX  89           
MARION         CLOUDY    88  79  74 SW8       30.06F HX 102           
MT. VERNON     FAIR      86  79  79 SW7       30.05F HX  99           
CENTRALIA*     FAIR      85  79  80 SE5       30.03F HX  98           
SALEM*         PTSUNNY   85  80  86 S7        30.05F HX  98           
METROPOLIS*    FAIR      89  78  70 S6        30.08S HX 103           
$$


SKY/WX - Weather  TMP - Temperature  DP - Dew Point  RH - Relative Humidity
WIND - Wind Direction/Speed PRES - Barometric Pressure VSB - Visibility
WCI - Wind Chill Index E13G22 Wind - East Wind 13 mph/Gusts of 22 mph